RH
10 8 8 8 9 9 9 9 8 8 9 9 10 10 11 12 12 13 13 12 12 11 11 9 9 8 8 8 8 8 9 13 18
7 8 10 10 10 10 9 8 8 8 8 9 9 11 11 12 13 13 13 13 12 12 11 11 11 10 9 8 8 8 8 8 8
9 10 11 10 10 10 10 9 9 9 9 10 10 10 12 13 13 13 13 14 15 14 13 14 13 12 12 11 9 8 7 7 7
10 11 11 11 11 11 11 11 11 11 10 10 10 10 11 12 12 13 13 15 15 15 15 14 14 13 13 12 11 10 10 9 9
11 12 12 11 11 12 12 11 11 11 11 11 11 11 11 12 12 12 14 15 17 17 15 15 14 14 14 13 13 12 12 11 10
12 13 13 13 13 12 12 12 12 12 12 11 12 11 12 12 12 13 15 16 18 18 16 15 15 14 14 13 13 13 13 12 12
13 14 14 13 12 12 13 13 13 13 13 12 12 12 12 12 12 13 15 17 19 19 17 15 14 13 13 13 12 12 11 11 11
14 14 14 13 13 13 13 13 13 13 13 12 12 13 12 12 13 13 15 17 19 20 19 16 15 14 13 12 12 11 11 11 10
14 15 14 13 13 13 13 13 13 13 13 13 13 13 13 13 13 13 15 17 20 21 21 19 18 17 16 15 14 13 12 11 11
15 15 15 15 15 15 15 15 15 15 15 15 14 14 13 13 13 13 15 17 19 20 20 21 20 19 18 17 16 15 14 13 12
16 16 16 17 17 17 17 17 17 17 17 17 16 15 15 14 13 13 14 16 17 18 19 22 22 21 20 19 17 16 15 14 14
17 17 18 19 19 18 18 18 19 19 20 20 19 18 17 16 14 14 15 15 16 17 19 21 23 22 20 19 17 16 15 15 14
17 18 19 20 20 20 20 20 21 22 23 22 22 20 19 18 16 15 15 16 17 18 19 21 23 23 21 19 17 16 15 13 12
17 18 20 20 20 20 20 20 22 24 25 24 23 22 21 19 18 16 16 17 19 19 20 23 23 22 19 17 15 13 12 11 11
17 18 19 19 20 20 21 21 23 26 26 26 26 24 23 21 20 18 18 20 19 19 22 24 24 20 17 15 14 13 12 11 11
17 18 18 19 19 20 21 22 24 27 28 27 27 26 26 24 23 21 21 21 20 22 25 26 22 19 17 16 14 13 12 12 12
17 18 19 19 19 19 20 22 24 28 29 29 28 29 29 27 26 25 23 23 22 25 29 26 22 19 18 16 14 14 13 13 13
18 19 19 19 19 20 21 22 24 28 30 31 30 29 30 31 29 29 27 24 24 30 30 26 22 21 18 16 15 14 14 13 13
18 19 20 20 20 21 21 23 25 28 31 33 32 31 31 30 31 30 28 26 28 30 29 27 25 22 19 17 16 15 14 13 13
18 19 20 20 21 22 23 24 26 29 32 35 35 34 33 33 33 31 27 28 28 28 29 28 26 24 21 19 17 16 14 14 13